Find Kosmos-2474

NORAD ID: 37829 Int'l Des: 2011-055 Owner: KVR/IACG Country: RU Constellation: GLONASS operational
MEOCIRCULAR

Live Position

Loading 3D Globe...

About Kosmos-2474

Description loading...

Upcoming Passes

Passes for default location (London). Set your location on the main map for personalized predictions.

Altitude History

Loading altitude history...

Two-Line Element Set

1 37829U 11055A 26104.31128675 .00000041 00000-0 00000+0 0 9991
2 37829 65.2547 75.0374 0010840 249.6791 182.8494 2.13101247113098
Epoch: Apr 14, 2026 • Age: 15 hours

Current Status

Altitude 19116.8 km
Velocity 3.96 km/s
Sub-Earth Point -20.17°S, 79.72°E
Launch Date Oct 2, 2011
Age 14.5 years
Type other

Technical Details

Classification Payload
Mass 1450.00 kg
Dry Mass 1200.00 kg
Total Mass 1450.00 kg
Length 4.00 m
Diameter 1.50 m
Span 7.80 m
Shape Cyl + Ant + 2 Pan
Manufacturer RESH
Bus Type Uragan
Phase Status In Orbit
Owner/State KVR/IACG/RU

Most Searched